Regional Weather Roundup
Issued by NWS Sterling, VA

Home | Current Version | Previous Version | Text Only | Print | Product List | Glossary Off
Versions: 1 2 3 4 5 6 7 8 9 10 11 12 13 14 15 16 17 18 19 20 21 22 23 24 25 26 27 28 29 30 31 32 33 34 35 36 37 38 39 40 41 42 43 44 45 46 47 48 49 50

000
ASUS41 KLWX 252310
RWRLWX

REGIONAL WEATHER ROUNDUP
NATIONAL WEATHER SERVICE BALTIMORE MD/WASHINGTON DC
600 PM EST SUN JAN 25 2015

Note: "FAIR" indicates few or no clouds below 12,000 feet
with no significant weather and/or obstructions to visibility.
 TC=TEMPERATURE CELSIUS

 * =Non NWS site. Station does not report precipitation (e.g. rain,
    snow, etc.), thunder, or fog.

DCZ001-MDZ009-015-VAZ040>042-051-053>054-260000-
WASHINGTON METRO

CITY           SKY/WX    TMP DP  RH WIND       PRES   REMARKS
WASHINGTON NAT CLOUDY    47  31  53 S5        29.85R
DULLES         CLOUDY    45  31  58 CALM      29.83R
ANDREWS AFB    CLOUDY    45  32  59 SE3       29.83R
FT BELVOIR     CLOUDY    46  33  61 CALM      29.84R
QUANTICO       CLOUDY    44  32  62 CALM      29.85R
COLLEGE PARK*  CLOUDY    46  32  57 CALM      29.84R
LEESBURG*      CLOUDY    45  34  65 CALM      29.84S
MANASSAS*      CLOUDY    45  36  70 CALM      29.83R
GAITHERSBURG*  CLOUDY    43  28  56 CALM      29.87R

$$

MDZ006>007-011-014-260000-
BALTIMORE METRO

CITY           SKY/WX    TMP DP  RH WIND       PRES   REMARKS
BWI AIRPORT    CLOUDY    46  30  53 CALM      29.84R
MD SCIENCE CTR   N/A     47  30  51 MISG      29.85R
ANNAPOLIS      CLOUDY    44  31  60 S7        29.85R
FORT MEADE*    CLOUDY    43  32  65 CALM      29.86R

$$

MDZ012-015-019>023-260000-
MARYLAND EASTERN SHORE

CITY           SKY/WX    TMP DP  RH WIND       PRES   REMARKS
OCEAN CITY     CLOUDY    43  32  65 SW6       29.89R
SALISBURY      MOCLDY    43  31  62 S6        29.87R
BAY BRIDGE AP*   N/A     45  32  61 S6        29.86R
CAMBRIDGE*     CLOUDY    45  32  61 S3        29.86S
EASTON*        CLOUDY    46  34  61 S6        29.89R

$$

MDZ017>025-260000-
SOUTHERN MARYLAND

CITY           SKY/WX    TMP DP  RH WIND       PRES   REMARKS
PATUXENT RIVER MOCLDY    41  32  70 SE6       29.85S
ST INIGOES     PTCLDY    44  30  57 SE7       29.85S
LEONARDTOWN*   CLEAR     43  32  65 SE5       29.87R

$$

MDZ003>005-260000-
NORTH CENTRAL MARYLAND

CITY           SKY/WX    TMP DP  RH WIND       PRES   REMARKS
FREDERICK*     NOT AVBL
HAGERSTOWN APT LGT RAIN  40  33  76 E5        29.83R
WESTMINSTER*   DRIZZLE   41  34  75 SW6       29.83R

$$

MDZ501>502-260000-
WESTERN MARYLAND

CITY           SKY/WX    TMP DP  RH WIND       PRES   REMARKS
OAKLAND*       CLOUDY    32 N/A N/A S5        29.71S FOG
CUMBERLAND*    CLOUDY    41  36  81 N3        29.84R

$$

VAZ025>031-260000-
SHENANDOAH VALLEY

CITY           SKY/WX    TMP DP  RH WIND       PRES   REMARKS
WINCHESTER*    CLOUDY    41  32  70 CALM      29.80S
FRONT ROYAL*   CLOUDY    41  32  70 CALM      29.80R
LURAY*         FAIR      39  34  81 CALM      29.79S
NEW MARKET*    FAIR      37  33  85 CALM      29.78R
STAUNTON*      MOCLDY    43  32  64 S3        29.80R
WAYNESBORO*    FAIR      40  32  71 CALM      29.77S

$$

WVZ021-048>050-054>055-260000-
EASTERN WEST VIRGINIA PANHANDLE

CITY           SKY/WX    TMP DP  RH WIND       PRES   REMARKS
MARTINSBURG    LGT RAIN  42  35  76 E3        29.82R
PETERSBURG*    CLOUDY    42  31  66 SE3       29.78R

$$

VAZ036>039-050-260000-
CENTRAL FOOTHILLS

CITY           SKY/WX    TMP DP  RH WIND       PRES   REMARKS
CHARLOTTESVILL PTCLDY    47  32  56 CALM      29.80R
CULPEPER*      MOCLDY    39  34  81 CALM      29.83R
ORANGE*        MOCLDY    41  34  75 CALM      29.83R
GORDONSVILLE*  FAIR      39  33  77 CALM      29.81R
WARRENTON*     MOCLDY    40  36  86 CALM      29.82R

$$

VAZ055>057-260000-
NORTH AND CENTRAL PIEDMONT

CITY           SKY/WX    TMP DP  RH WIND       PRES   REMARKS
FREDERICKSBRG* FAIR      44  34  69 CALM      29.83R
STAFFORD*      PTCLDY    43  31  63 CALM      29.87R

$$

NCZ024-NYZ072-PAZ021-071-VAZ022-071-260000-
OTHER REGIONAL OBSERVATIONS

CITY           SKY/WX    TMP DP  RH WIND       PRES   REMARKS
NEW YORK CITY  CLEAR     37   7  28 NW5       29.90R
PHILADELPHIA   MOCLDY    42  32  67 N6        29.87R
PITTSBURGH     LGT SNOW  31  30  96 NE13      29.78R FOG     WCI  21
ROANOKE        CLOUDY    48  30  49 E8        29.78R
RICHMOND       MOCLDY    49  34  56 S6        29.83R
RALEIGH        PTCLDY    49  32  52 SE5       29.82S

$$

ANZ530>537-260000-
MARINE OBSERVATIONS

STATION/POSITION TIME  TEMP    WIND        PRES
                       AIR SEA DIR/SP/G
                 (UTC) (F)     (DEG/KT/KT) (MB)
THOMAS PT LIGHT  2300   41 37  170/ 12/ 13 1012.1R
BALT KEY BRIDGE  2300   42     110/  7/  8 1010.4R
COVE POINT       2300   40     190/ 12/ 13 1010.7R
LEWISETTA        2300   45 39  160/  8/  9 1010.5R
SOLOMONS ISLAND  2300      39                N/A
PINEY POINT      2300          150/ 11/ 11   N/A

$$




USA.gov is the U.S. government's official web portal to all federal, state and local government web resources and services.